[[{"header":{"parameterUnit":"m.s-1","parameterCategory":1,"la1":30.2991,"la2":30.254,"lo1":-89.0895,"lo2":-89.0444,"dy":0.0017,"dx":0.0017,"nx":28,"ny":28,"refTime":"2024-12-25T03:00:00:Z","depth":0,"parameterNumber":2,"parameterNumberName":"U-component_of_WINDS"},"data":[0,0,0,0,0,0,0,0,0,0,0,0,0,0,0,0,0,0,0,0,0,0,0,0,0,0,0,0,0,0,0,0,0,0,0,0,0,0,0,0,0,0,0,0,0,0,0,0,0,0,0,0,0,0,0,0,0,0,-4.8084,-4.8084,0,-4.8071,-4.8071,-4.8071,-4.7918,-4.7914,-4.791,-4.7906,-4.7895,-4.7898,-4.7901,0,0,0,0,0,0,0,0,0,0,0,0,0,-4.7978,-4.7981,-4.8084,-4.8084,-4.8084,-4.8071,-4.8071,-4.8071,-4.7918,-4.7914,-4.7909,-4.7904,-4.7894,-4.7898,-4.7902,0,0,0,0,0,0,0,0,0,0,0,0,0,-4.8001,-4.7982,-4.8084,-4.8006,-4.7999,-4.8071,-4.8071,-4.8071,-4.7919,-4.7913,-4.7908,-4.7902,-4.7893,-4.7897,-4.7902,-4.8049,0,0,-4.7917,-4.792,0,0,0,0,0,0,0,0,-4.8,-4.8005,-4.8018,-4.8012,-4.8004,-4.799,-4.8029,-4.8064,-4.7921,-4.795,-4.7906,-4.7899,-4.7931,-4.7933,-4.7943,-4.8049,-4.8048,-4.7918,-4.7921,-4.7923,-4.7924,0,0,0,0,0,0,0,-4.7998,-4.8004,-4.8079,-4.8018,-4.801,-4.7972,-4.7969,-4.8035,-4.7973,-4.7947,-4.7935,-4.7936,-4.7926,-4.7939,-4.7942,-4.8048,-4.7918,-4.7922,-4.7925,-4.7927,-4.8274,-4.828,0,0,0,0,0,0,-4.8007,-4.8004,-4.8079,-4.8079,-4.7987,-4.7979,-4.7975,-4.8,-4.7972,-4.7962,-4.7941,-4.7929,-4.7933,-4.7936,-4.7941,-4.8111,-4.7923,-4.7928,-4.793,-4.8268,-4.8275,-4.8282,0,0,0,0,0,0,-4.8006,-4.8015,-4.808,-4.8038,-4.8044,-4.7987,-4.8016,-4.8003,-4.8015,-4.7968,-4.7956,-4.7965,-4.7929,-4.7934,-4.8023,-4.8109,-4.793,-4.7934,-4.826,-4.827,-4.8279,-4.8453,0,0,0,0,0,0,-4.8003,-4.8016,-4.8071,-4.8041,-4.8047,-4.8163,-4.8022,-4.8007,-4.8024,-4.8008,-4.7987,-4.7978,-4.7925,-4.8017,-4.8028,-4.8112,-4.7938,-4.8252,-4.8265,-4.8276,-4.844,-4.8467,-4.8491,0,0,0,0,0,-4.8,-4.812,-4.8074,-4.8084,-4.8114,-4.8168,-4.8171,-4.8107,-4.8032,-4.8086,-4.8056,-4.7979,-4.8098,-4.8027,-4.8039,-4.8126,-4.8247,-4.8261,-4.8275,-4.8428,-4.8462,-4.8491,0,0,0,0,0,0,-4.8162,-4.8115,-4.8063,-4.8177,-4.8178,-4.8142,-4.8209,-4.8145,-4.8167,-4.8151,-4.807,-4.8067,-4.8169,-4.8156,-4.8079,-4.8267,-4.8159,-4.8176,-4.8271,-4.8303,-4.8328,-4.8329,-4.7942,0,0,0,0,0,-4.8211,-4.8258,-4.8215,-4.832,-4.8323,-4.8267,-4.8288,-4.8238,-4.8235,-4.8235,-4.8211,-4.8212,-4.8249,-4.8275,-4.8307,-4.8437,-4.8431,-4.8503,-4.8528,-4.855,-4.8565,-4.8634,-4.8665,-4.8328,-4.8328,-4.8328,0,0,-4.8313,-4.8293,-4.8328,-4.8352,-4.8346,-4.8398,-4.8268,-4.8327,-4.8365,-4.8244,-4.8327,-4.831,-4.8305,-4.8416,-4.8464,-4.8408,-4.8657,-4.8568,-4.8585,-4.8589,-4.8651,-4.8684,-4.8712,-4.8338,-4.8336,-4.8334,0,0,-4.8524,-4.8514,-4.86,-4.8598,-4.8591,-4.8553,-4.8574,-4.8548,-4.8532,-4.8614,-4.8524,-4.8568,-4.8634,-4.8635,-4.8644,-4.8857,-4.8787,-4.887,-4.9005,-4.9072,-4.9099,-4.9122,-4.9198,-4.9227,-4.8886,-4.8886,-4.8887,0,-4.8651,-4.8725,-4.8653,-4.8719,-4.8733,-4.8626,-4.8713,-4.8714,-4.8719,-4.8731,-4.8669,-4.875,-4.8739,-4.8849,-4.8901,-4.8912,-4.8934,-4.8872,-4.9101,-4.9123,-4.9144,-4.9216,-4.9245,-4.8896,-4.8895,-4.8894,-4.8893,0,-4.8882,-4.8934,-4.9005,-4.9012,-4.9034,-4.911,-4.9051,-4.9082,-4.9031,-4.9,-4.9085,-4.9069,-4.9096,-4.9118,-4.9069,-4.9221,-4.9187,-4.9115,-4.9004,-4.9187,-4.9254,-4.9281,-4.8911,-4.8907,-4.8904,-4.8902,0,0,-4.9194,-4.9161,-4.9188,-4.919,-4.9175,-4.9215,-4.9287,-4.9313,-4.9341,-4.9348,-4.9407,-4.9466,-4.9399,-4.9409,-4.9359,-4.9419,-4.959,-4.9338,-4.9337,-4.9386,-4.9757,-4.9812,-4.9845,-4.9543,-4.9548,-4.9552,-4.9757,0,-4.9398,-4.9518,-4.9457,-4.9586,-4.9634,-4.9533,-4.9596,-4.9595,-4.9568,-4.9605,-4.9575,-4.9618,-4.9526,-4.9532,-4.9586,-4.9557,-4.9663,-4.9542,-4.9597,-4.96,-4.9601,-4.9879,-4.9937,-5.0131,-4.9783,-4.9787,-4.979,0,-4.9651,-4.9669,-4.9803,-4.978,-4.9798,-4.9855,-4.9874,-4.9911,-4.9908,-4.9884,-4.9897,-4.9833,-4.9903,-4.9795,-4.989,-4.9809,-4.9828,-4.9818,-4.9824,-4.9826,-4.9706,-4.9889,-5.0192,-5.0221,-4.983,-4.9827,-4.9824,0,-4.9865,-4.9923,-5.001,-5.0015,-4.9991,-5.0034,-5.0026,-5.0016,-5.0036,-5.0054,-5.0066,-5.0091,-5.0105,-5.0127,-5.0072,-4.9998,-5.0176,-5.0062,-5.0158,-5.016,-5.02,-5.0198,-5.051,-5.0213,-5.0213,-5.0212,-5.0212,0,-5.0099,-5.0185,-5.0106,-5.016,-5.0254,-5.0183,-5.0278,-5.0259,-5.0252,-5.0301,-5.0216,-5.0264,-5.0188,-5.0229,-5.0187,-5.0273,-5.028,-5.0263,-5.0251,-5.027,-5.0273,-5.0282,-5.0267,-5.022,-5.0218,-5.0217,-5.0216,0,-5.0354,-5.0305,-5.0393,-5.0363,-5.0358,-5.0428,-5.0402,-5.0452,-5.0419,-5.0482,-5.0493,-5.0443,-5.0487,-5.0434,-5.0473,-5.0445,-5.0562,-5.0529,-5.0563,-5.0554,-5.0652,-5.0644,-5.0981,-5.1021,-5.07,-5.0703,-5.0705,0,-5.0506,-5.057,-5.0547,-5.0573,-5.057,-5.0614,-5.0634,-5.0567,-5.0592,-5.0593,-5.0643,-5.0679,-5.0704,-5.0779,-5.0746,-5.0776,-5.0744,-5.086,-5.0747,-5.0766,-5.0745,-5.0742,-5.0748,-5.0883,-5.0886,-5.089,-5.0892,0,-5.0781,-5.0754,-5.0786,-5.081,-5.0836,-5.0852,-5.0861,-5.0888,-5.0819,-5.0851,-5.0894,-5.0914,-5.0954,-5.0992,-5.1013,-5.1004,-5.0938,-5.0928,-5.0952,-5.0972,-5.0989,-5.0981,-5.0625,-5.092,-5.0917,-5.0915,-5.0914,-5.0913,-5.0988,-5.1041,-5.1033,-5.1072,-5.1072,-5.1083,-5.1128,-5.1102,-5.1137,-5.1164,-5.1122,-5.1177,-5.1173,-5.1194,-5.1194,-5.1236,-5.1186,-5.1221,-5.1229,-5.1239,-5.1254,-5.0983,-5.124,-5.1239,-5.1238,-5.1237,-5.1237,0,-5.1259,-5.1249,-5.1286,-5.1302,-5.1333,-5.1267,-5.1274,-5.1305,-5.1354,-5.1355,-5.1382,-5.1433,-5.1469,-5.144,-5.147,-5.151,-5.148,-5.152,-5.1516,-5.1516,-5.1297,-5.1273,-5.1544,-5.1544,-5.1544,-5.1544,-5.1544,-5.1544,-5.1403,-5.1488,-5.1461,-5.1545,-5.1535,-5.1588,-5.1598,-5.1608,-5.1609,-5.1669,-5.1699,-5.1679,-5.1669,-5.1698,-5.1729,-5.1719,-5.1734,-5.1786,-5.1765,-5.1561,-5.1531,-5.1502,-5.1479,-5.179,-5.179,-5.198,-5.1982,-5.1984]},{"header":{"parameterUnit":"m.s-1","parameterCategory":1,"la1":30.2991,"la2":30.254,"lo1":-89.0895,"lo2":-89.0444,"dy":0.0017,"dx":0.0017,"nx":28,"ny":28,"refTime":"2024-12-25T03:00:00:Z","depth":0,"parameterNumber":3,"parameterNumberName":"V-component_of_WINDS"},"data":[0,0,0,0,0,0,0,0,0,0,0,0,0,0,0,0,0,0,0,0,0,0,0,0,0,0,0,0,0,0,0,0,0,0,0,0,0,0,0,0,0,0,0,0,0,0,0,0,0,0,0,0,0,0,0,0,0,0,-0.8555,-0.8555,0,-0.8557,-0.8557,-0.8557,-0.8545,-0.8545,-0.8545,-0.8544,-0.8547,-0.8547,-0.8548,0,0,0,0,0,0,0,0,0,0,0,0,0,-0.854,-0.854,-0.8555,-0.8555,-0.8555,-0.8557,-0.8557,-0.8557,-0.8545,-0.8545,-0.8545,-0.8544,-0.8547,-0.8547,-0.8548,0,0,0,0,0,0,0,0,0,0,0,0,0,-0.8545,-0.854,-0.8555,-0.855,-0.8549,-0.8557,-0.8557,-0.8557,-0.8545,-0.8545,-0.8544,-0.8544,-0.8547,-0.8547,-0.8548,-0.8562,0,0,-0.855,-0.855,0,0,0,0,0,0,0,0,-0.8544,-0.8545,-0.855,-0.855,-0.855,-0.8551,-0.8553,-0.8559,-0.8546,-0.8547,-0.8544,-0.8544,-0.8549,-0.8549,-0.855,-0.8562,-0.8562,-0.855,-0.855,-0.855,-0.855,0,0,0,0,0,0,0,-0.8544,-0.8545,-0.8556,-0.8551,-0.855,-0.8546,-0.8547,-0.8554,-0.8551,-0.8547,-0.8546,-0.8546,-0.8548,-0.855,-0.855,-0.8562,-0.855,-0.855,-0.855,-0.8551,-0.8582,-0.8582,0,0,0,0,0,0,-0.8544,-0.8545,-0.8556,-0.8556,-0.8546,-0.8547,-0.8547,-0.8551,-0.8551,-0.855,-0.8547,-0.8546,-0.8549,-0.855,-0.8551,-0.8565,-0.855,-0.8551,-0.8551,-0.8582,-0.8582,-0.8583,0,0,0,0,0,0,-0.8544,-0.8546,-0.8556,-0.855,-0.8551,-0.8548,-0.8552,-0.8551,-0.8553,-0.855,-0.855,-0.8549,-0.8549,-0.855,-0.8558,-0.8565,-0.8551,-0.8552,-0.8581,-0.8582,-0.8582,-0.8596,0,0,0,0,0,0,-0.8544,-0.8546,-0.8552,-0.855,-0.8552,-0.8565,-0.8552,-0.8551,-0.8554,-0.8552,-0.8553,-0.8552,-0.8548,-0.8558,-0.8559,-0.8566,-0.8552,-0.858,-0.8581,-0.8582,-0.8595,-0.8597,-0.8599,0,0,0,0,0,-0.8543,-0.8556,-0.8552,-0.8553,-0.8559,-0.8565,-0.8566,-0.8561,-0.8554,-0.856,-0.8558,-0.8552,-0.8564,-0.8559,-0.856,-0.8567,-0.858,-0.8581,-0.8582,-0.8594,-0.8596,-0.8598,0,0,0,0,0,0,-0.8559,-0.8556,-0.8551,-0.8564,-0.8565,-0.8563,-0.857,-0.8564,-0.8567,-0.8566,-0.856,-0.856,-0.8569,-0.8569,-0.8563,-0.8579,-0.8571,-0.8572,-0.8579,-0.8582,-0.8583,-0.8583,-0.8553,0,0,0,0,0,-0.8564,-0.8569,-0.8566,-0.8577,-0.8578,-0.8574,-0.8576,-0.8572,-0.8573,-0.8573,-0.8572,-0.8573,-0.8576,-0.8579,-0.8582,-0.8594,-0.8593,-0.8599,-0.8601,-0.8603,-0.8604,-0.8608,-0.8611,-0.8586,-0.8586,-0.8586,0,0,-0.8574,-0.8573,-0.8577,-0.858,-0.858,-0.8585,-0.8574,-0.858,-0.8583,-0.8574,-0.8582,-0.8581,-0.8581,-0.859,-0.8595,-0.8591,-0.8611,-0.8604,-0.8606,-0.8606,-0.861,-0.8612,-0.8614,-0.8587,-0.8587,-0.8587,0,0,-0.8595,-0.8595,-0.8604,-0.8603,-0.8603,-0.86,-0.8601,-0.86,-0.8598,-0.8606,-0.8598,-0.8601,-0.8608,-0.8608,-0.8609,-0.8626,-0.862,-0.8627,-0.8638,-0.8642,-0.8644,-0.8645,-0.865,-0.8652,-0.8629,-0.8629,-0.8629,0,-0.8608,-0.8615,-0.8609,-0.8615,-0.8616,-0.8606,-0.8614,-0.8614,-0.8615,-0.8615,-0.861,-0.8617,-0.8617,-0.8625,-0.8629,-0.863,-0.8631,-0.8628,-0.8644,-0.8646,-0.8647,-0.8652,-0.8654,-0.863,-0.8629,-0.8629,-0.8629,0,-0.863,-0.8635,-0.8642,-0.8641,-0.8643,-0.865,-0.8644,-0.8646,-0.8641,-0.8638,-0.8644,-0.8643,-0.8645,-0.8647,-0.8643,-0.8654,-0.8651,-0.8645,-0.8637,-0.865,-0.8654,-0.8656,-0.8631,-0.863,-0.863,-0.863,0,0,-0.8663,-0.8657,-0.8659,-0.8658,-0.8656,-0.8659,-0.8664,-0.8665,-0.8667,-0.8667,-0.867,-0.8675,-0.8669,-0.867,-0.8665,-0.8669,-0.868,-0.8662,-0.8662,-0.8665,-0.869,-0.8694,-0.8696,-0.8676,-0.8676,-0.8677,-0.869,0,-0.8682,-0.8691,-0.8684,-0.8694,-0.8697,-0.8687,-0.8691,-0.869,-0.8686,-0.8688,-0.8684,-0.8687,-0.8679,-0.8679,-0.8682,-0.8678,-0.8685,-0.8677,-0.8679,-0.8679,-0.8679,-0.8699,-0.8704,-0.8716,-0.8692,-0.8692,-0.8692,0,-0.8707,-0.8706,-0.8716,-0.871,-0.8711,-0.8716,-0.8714,-0.8717,-0.8714,-0.8711,-0.871,-0.8704,-0.8707,-0.8699,-0.8703,-0.8698,-0.8698,-0.8695,-0.8696,-0.8696,-0.8686,-0.8698,-0.872,-0.8722,-0.8695,-0.8695,-0.8694,0,-0.8728,-0.873,-0.8735,-0.8735,-0.8729,-0.8731,-0.8729,-0.8725,-0.8726,-0.8724,-0.8724,-0.8724,-0.8724,-0.8723,-0.8716,-0.8711,-0.8721,-0.8712,-0.8718,-0.8718,-0.872,-0.872,-0.8742,-0.8721,-0.8721,-0.8721,-0.8721,0,-0.875,-0.8756,-0.8744,-0.8748,-0.8754,-0.8745,-0.8751,-0.8747,-0.8744,-0.8746,-0.8737,-0.8738,-0.8729,-0.873,-0.8725,-0.8728,-0.8728,-0.8725,-0.8724,-0.8726,-0.8726,-0.8726,-0.8724,-0.8722,-0.8722,-0.8721,-0.8721,0,-0.8775,-0.8768,-0.8773,-0.8765,-0.8764,-0.8768,-0.8762,-0.8764,-0.8759,-0.8761,-0.8761,-0.8753,-0.8753,-0.8746,-0.8745,-0.8741,-0.8746,-0.8743,-0.8747,-0.8746,-0.8751,-0.8751,-0.8773,-0.8775,-0.8754,-0.8754,-0.8754,0,-0.8789,-0.8794,-0.8786,-0.8786,-0.8784,-0.8784,-0.8784,-0.8775,-0.8774,-0.877,-0.8772,-0.8771,-0.877,-0.877,-0.8764,-0.8762,-0.8759,-0.8766,-0.8759,-0.876,-0.8757,-0.8757,-0.8757,-0.8768,-0.8769,-0.8769,-0.8769,0,-0.8815,-0.8811,-0.881,-0.8807,-0.8807,-0.8804,-0.8802,-0.8802,-0.8792,-0.8792,-0.8791,-0.879,-0.8787,-0.8786,-0.8782,-0.8779,-0.8772,-0.8771,-0.8772,-0.8775,-0.8776,-0.8774,-0.8751,-0.8771,-0.8771,-0.8771,-0.8771,-0.8771,-0.8835,-0.8837,-0.8831,-0.883,-0.8827,-0.8823,-0.8824,-0.8818,-0.8818,-0.8814,-0.8809,-0.8808,-0.8803,-0.8798,-0.8795,-0.8794,-0.879,-0.8792,-0.8792,-0.8792,-0.8793,-0.8776,-0.8793,-0.8793,-0.8793,-0.8793,-0.8793,0,-0.8859,-0.8854,-0.8853,-0.8848,-0.8847,-0.8839,-0.8835,-0.8834,-0.8834,-0.8829,-0.8827,-0.8825,-0.8823,-0.8816,-0.8813,-0.8813,-0.881,-0.8813,-0.8812,-0.8811,-0.8798,-0.8796,-0.8815,-0.8815,-0.8815,-0.8815,-0.8815,-0.8815,-0.8872,-0.8874,-0.8869,-0.8869,-0.8864,-0.8863,-0.886,-0.8857,-0.8853,-0.8851,-0.8848,-0.8843,-0.8837,-0.8833,-0.883,-0.8828,-0.8827,-0.8831,-0.8827,-0.8815,-0.8813,-0.8811,-0.8809,-0.8831,-0.8831,-0.8841,-0.8841,-0.8841]}]]